小島彗星

70P/Kojima (2021)

English version
Home page
Updated on September 18, 2021

---------------------------------------------------------------------

・ プロフィール

・ 写真集

・ 軌道要素

Epoch 2021 July 5.0 TT = JDT 2459400.5
T 2021 Nov. 3.13614 TT                                  Rudenko
q   2.0089705            (2000.0)            P               Q
n   0.13978581     Peri.    1.83707     -0.51642515     -0.85044554
a   3.6770031      Node   119.26809     +0.78419704     -0.51669459
e   0.4536392      Incl.    6.59818     +0.34400591     -0.09883869
P   7.05
From 1307 observations 1970 Dec. 27-2021 Aug. 30, mean residual 0".7.
     Nongravitational parameters A1 = +0.03, A2 = -0.0077.

・ 星図

・ 光度変化

        m1 = 10.5 + 5 logΔ + 15.0 log r(t - 50)

---------------------------------------------------------------------

軌道要素はM.P.E.C. 2021-R75に掲載されたものです。
星図はステラナビゲータ Ver.10 (アストロアーツ) で作成したものです。
光度グラフはComet for Windowsで作成したものです。

---------------------------------------------------------------------

Copyright(C) Seiichi Yoshida (comet@aerith.net). All rights reserved.